Lapse_Rate
3.7 3.4 3.6 4.6 6.5 6.5 6.5 6.5 6.5 6.5 6.5 7.4 7.6 7.0 6.6 7.1 6.5 6.5 6.4 7.2 6.9 7.1 6.9 6.2 5.0 5.0 5.0 4.8 4.8 4.8 4.8 5.1 5.2 5.5 5.5 5.6 5.7 5.7 6.0 6.0 6.2 6.0 6.0 6.2 6.3 6.3 6.2 6.7 6.6
4.2 3.7 4.0 6.7 6.5 6.5 6.5 6.5 6.5 6.5 7.1 7.6 7.6 7.4 6.9 6.5 7.9 6.9 8.0 6.4 7.0 6.7 6.7 6.9 4.9 4.9 4.9 4.7 4.5 4.6 4.7 4.8 4.9 5.1 5.4 5.6 5.7 5.9 6.1 6.2 6.3 6.2 6.1 6.3 6.2 6.4 6.6 6.5 6.6
3.5 4.0 7.2 6.5 6.5 6.5 6.5 6.5 6.5 6.9 7.4 7.3 7.1 7.8 7.4 7.1 7.7 8.5 7.2 6.5 6.6 6.7 6.9 6.3 4.9 4.9 4.9 4.7 4.6 4.6 4.6 4.6 4.8 5.1 5.2 5.6 5.7 6.1 6.4 6.5 6.6 6.5 6.3 6.4 6.3 6.3 6.4 6.6 6.6
5.2 6.4 7.6 6.5 6.5 6.5 6.5 6.5 6.7 6.7 7.3 7.6 7.5 6.5 7.9 7.4 6.7 6.8 6.3 6.6 6.4 6.5 6.8 5.2 5.1 5.3 5.1 4.8 4.7 4.8 4.8 4.7 4.9 5.0 5.1 5.2 6.2 6.4 6.2 6.5 6.4 6.6 6.7 6.6 6.6 6.3 6.2 6.6 6.6
5.6 6.5 6.5 6.5 6.5 6.5 6.5 6.9 7.0 6.5 6.9 7.1 7.4 6.7 7.2 6.4 6.6 5.8 5.7 6.6 6.4 6.5 6.5 5.9 5.1 4.9 4.8 4.8 5.0 4.9 4.9 5.0 5.1 5.3 5.4 5.5 5.7 6.0 6.0 6.1 6.3 6.4 6.5 6.4 6.6 6.7 6.5 6.4 6.5
7.3 7.3 6.5 6.5 6.5 6.5 6.6 7.2 7.1 6.9 7.1 7.2 7.1 7.0 7.4 5.9 6.0 5.7 6.1 6.2 7.2 6.6 6.6 6.1 5.2 5.1 5.1 5.2 5.3 5.3 5.3 5.3 5.4 5.5 5.6 5.7 5.5 5.7 5.7 6.0 6.1 6.3 6.3 6.4 6.4 6.9 6.8 6.6 6.4
6.8 6.5 6.5 6.5 6.5 6.5 6.5 7.5 6.8 6.8 6.9 6.9 7.7 6.5 7.5 6.6 6.5 5.8 5.9 6.1 6.7 6.6 6.4 6.2 6.4 6.2 5.5 5.5 5.4 5.4 5.4 5.4 5.5 5.6 5.6 5.6 5.7 5.7 5.9 6.1 6.2 6.2 6.2 6.3 6.6 6.6 6.5 6.7 6.5
7.4 6.5 6.5 6.5 6.5 6.5 6.7 7.1 7.5 7.2 6.8 8.0 8.0 6.6 6.8 7.4 5.9 5.6 5.4 5.7 6.3 6.4 6.7 6.7 6.5 6.4 6.2 6.2 5.5 5.5 5.5 5.8 5.8 5.7 5.7 5.7 6.0 6.0 5.9 5.8 5.7 5.9 6.1 6.2 6.5 6.8 6.6 6.3 6.2
6.2 6.5 6.5 6.5 6.5 6.5 7.1 6.6 7.6 8.0 7.5 7.7 7.9 7.8 7.7 5.8 5.3 5.5 5.7 5.7 5.4 5.7 6.6 6.7 6.7 6.3 5.9 6.1 6.0 5.4 5.6 5.9 6.0 6.3 6.0 5.9 8.3 7.8 6.7 6.7 5.4 5.8 5.9 6.1 6.4 6.5 6.6 6.2 6.2
6.8 6.5 6.5 6.6 6.6 6.5 6.9 6.9 7.2 7.1 7.1 7.1 7.5 5.9 6.1 5.4 5.3 5.7 5.6 5.6 5.6 5.5 5.6 6.3 6.2 6.2 5.9 6.4 6.0 5.9 6.1 6.7 6.8 6.9 6.7 6.8 7.0 6.5 6.8 6.6 5.5 5.8 5.9 6.1 6.4 6.5 6.7 6.7 7.3
6.9 6.5 6.5 6.8 7.2 7.3 6.9 6.9 7.5 6.9 6.5 7.2 7.1 6.3 6.0 5.9 6.1 6.7 6.4 6.2 5.3 5.7 5.8 5.5 5.7 5.8 6.3 6.0 6.1 5.5 6.4 6.1 6.5 6.3 6.1 6.4 6.4 6.4 6.9 6.7 6.9 7.0 6.4 8.4 7.6 7.1 7.4 6.6 6.1
6.5 6.8 6.9 7.0 7.3 7.1 6.7 7.3 6.9 7.2 7.1 7.0 6.6 5.0 5.2 6.2 8.0 6.3 5.5 5.3 5.6 5.3 5.6 5.6 5.5 5.3 5.6 5.8 6.4 6.2 6.1 5.9 5.9 5.8 6.3 6.3 5.5 6.6 6.5 7.1 6.7 6.0 6.9 6.7 6.5 6.9 6.8 6.6 5.9
6.5 6.6 7.1 7.3 7.3 7.2 7.3 6.9 6.8 7.1 7.8 6.8 6.0 5.5 5.7 7.9 7.4 6.4 6.6 6.0 6.0 5.6 5.7 5.8 5.5 5.2 5.6 5.9 6.0 6.2 6.3 6.2 6.0 6.6 7.2 5.2 3.4 5.6 6.9 6.4 6.6 6.7 6.5 6.8 6.3 6.5 6.8 6.4 6.2
7.0 7.0 7.0 7.2 7.1 7.2 6.7 6.7 7.1 7.2 7.7 6.8 7.2 7.2 7.9 8.0 6.7 7.5 7.2 6.2 5.9 6.1 6.1 6.0 5.4 6.0 5.7 5.6 6.0 6.2 5.9 5.8 6.3 5.9 6.8 7.2 5.7 6.2 6.7 6.5 6.3 6.3 6.4 6.5 6.4 7.3 7.1 6.7 6.4
7.1 6.5 6.5 6.8 7.0 6.6 7.2 6.5 6.5 7.4 7.8 7.4 7.5 7.8 7.9 8.0 7.2 6.4 6.6 6.6 6.6 6.3 6.7 6.0 5.8 5.9 5.6 6.1 6.2 6.4 6.9 6.8 7.1 6.9 6.2 6.7 7.0 7.2 6.8 6.1 6.9 6.7 6.2 5.9 6.0 6.0 6.6 7.1 6.6
6.5 6.5 6.5 6.5 6.7 6.8 6.8 6.5 6.5 7.6 7.6 7.3 7.5 7.7 7.8 6.7 6.9 6.1 5.8 6.0 6.4 6.6 5.6 6.4 6.5 6.0 5.7 5.6 5.9 5.7 6.1 5.8 6.3 6.7 6.8 6.3 6.3 5.8 5.8 6.1 7.3 7.2 6.8 7.0 7.4 7.0 7.4 6.8 6.5
6.5 6.5 6.5 6.5 6.8 6.5 6.5 6.5 6.7 7.6 7.4 7.2 7.5 7.7 7.8 6.1 6.1 5.8 5.9 5.8 5.7 5.8 5.9 5.6 5.4 5.6 5.1 5.1 5.0 4.8 4.8 5.3 5.1 5.1 5.7 5.4 5.5 5.9 6.0 7.0 7.5 6.6 7.5 7.5 7.4 7.3 7.3 7.4 6.3
6.5 6.5 6.5 6.5 6.5 6.5 6.5 6.5 6.5 7.3 7.3 7.2 7.4 7.6 7.7 7.7 6.4 5.7 5.3 5.2 4.7 4.7 4.9 5.4 5.1 4.4 4.1 3.7 4.4 4.5 4.5 4.9 4.8 5.0 5.1 4.8 5.0 5.1 5.1 5.4 6.1 6.3 7.6 7.3 7.3 7.0 7.3 7.2 6.7
6.5 6.5 6.5 6.5 6.5 6.5 6.5 6.5 6.5 6.9 7.1 7.1 7.3 7.4 7.6 7.8 6.0 5.4 4.5 4.8 4.5 4.2 3.6 3.9 3.7 3.8 3.6 4.4 4.9 5.5 5.9 5.6 5.6 4.7 4.1 4.2 4.4 4.9 4.7 5.8 5.9 5.9 6.2 6.8 6.7 6.6 7.0 7.7 6.7
6.5 6.5 6.5 6.5 6.5 6.5 6.5 6.5 6.5 6.7 6.8 7.2 7.3 7.4 7.6 6.5 5.3 5.9 4.6 4.9 5.3 4.6 3.8 3.4 3.9 3.7 3.5 3.7 4.6 5.4 5.2 5.3 4.8 4.5 4.6 4.5 4.6 4.3 3.7 3.9 4.3 5.4 5.5 5.8 6.7 6.8 7.9 7.5 7.1
6.5 6.5 6.5 6.5 6.5 6.5 6.5 6.5 6.5 6.5 7.0 7.3 7.6 7.7 7.8 7.3 5.5 6.5 3.7 4.2 5.2 4.1 2.9 4.1 4.1 3.2 3.4 3.5 4.1 4.8 4.9 4.5 4.9 5.3 5.7 5.4 5.1 5.0 4.3 3.3 3.4 3.0 3.4 4.5 5.3 6.6 7.1 8.5 6.2
6.5 6.5 6.5 6.5 6.5 6.5 6.5 6.5 6.5 6.5 6.5 6.6 7.2 7.5 7.7 7.6 5.2 5.7 4.3 3.2 3.4 4.6 5.3 3.3 3.0 3.2 3.1 3.5 4.0 4.5 5.2 5.5 5.1 5.2 5.6 6.2 5.7 5.8 5.6 5.4 5.6 4.9 3.2 3.3 4.1 5.6 7.2 7.5 8.0
6.5 6.5 6.5 6.5 6.5 6.5 6.5 6.5 6.5 6.5 6.5 6.5 6.9 7.4 7.6 7.9 5.5 4.9 4.9 4.3 4.1 3.7 2.9 3.3 3.4 2.8 2.5 3.2 4.1 5.0 5.4 5.1 5.3 5.9 5.6 5.6 5.6 5.6 5.9 6.1 6.4 6.4 4.9 3.9 4.1 5.0 5.8 7.1 8.8
6.5 6.5 6.5 6.5 6.5 6.5 6.5 6.5 6.5 6.5 6.5 6.5 6.8 7.3 7.5 7.8 6.8 5.5 4.9 4.0 4.4 4.4 4.1 3.7 3.1 2.5 3.0 3.6 4.5 4.7 4.6 4.6 5.0 4.0 4.2 4.8 6.4 6.5 6.2 6.3 6.5 6.7 6.7 6.1 5.5 4.4 5.7 7.1 7.4
6.5 6.5 6.5 6.5 6.5 6.5 6.5 6.5 6.5 6.5 6.5 6.5 6.7 7.2 7.6 7.9 7.1 5.5 4.0 3.5 3.9 4.9 4.6 4.1 3.4 3.0 2.7 3.9 4.4 4.8 4.5 4.7 5.3 4.7 4.7 5.7 6.2 6.9 6.5 6.2 6.0 6.5 6.5 6.5 6.4 6.4 6.4 7.0 7.5
6.5 6.5 6.5 6.5 6.5 6.5 6.5 6.5 6.5 6.5 7.0 7.3 7.3 7.5 7.6 7.8 7.6 5.8 4.1 4.1 4.1 4.7 4.8 4.4 3.7 3.3 3.7 4.4 4.9 4.7 4.7 5.7 5.6 5.0 5.5 5.5 5.2 5.4 6.1 6.4 6.3 6.4 6.7 6.9 6.5 7.2 6.7 6.7 6.7
6.5 6.5 6.5 6.5 6.5 6.5 6.5 6.5 6.5 6.5 6.5 6.9 7.1 7.3 7.4 7.6 7.0 5.3 5.2 4.1 4.1 4.3 4.7 5.5 3.8 4.1 4.5 5.1 5.0 4.9 5.1 5.1 5.6 5.6 5.5 5.5 5.4 5.3 5.6 6.4 6.6 6.4 6.4 6.5 6.4 6.5 6.5 7.0 6.9
6.5 6.5 6.5 6.5 6.5 6.5 6.5 6.5 6.5 6.5 6.5 6.5 6.6 7.0 7.3 7.4 6.9 6.0 5.4 5.0 5.3 4.7 5.2 4.9 5.0 4.9 5.2 5.6 5.4 5.6 5.2 5.1 5.6 6.1 5.7 5.1 5.1 5.2 4.2 4.5 6.2 6.8 6.5 6.3 6.2 6.0 6.5 6.4 6.1
6.5 6.5 6.5 6.5 6.5 6.5 6.5 6.5 6.5 6.5 6.5 6.5 6.8 7.2 7.4 7.4 7.2 7.0 5.7 5.7 5.0 4.3 4.5 5.5 5.5 5.5 5.8 5.7 5.6 5.6 5.6 5.8 6.1 6.0 5.5 5.3 5.0 3.9 4.1 3.4 4.3 5.4 6.3 6.3 5.9 6.2 6.5 6.4 6.0
6.5 6.5 6.5 6.5 6.5 6.5 6.5 6.5 6.5 6.5 6.6 6.9 7.0 7.3 7.4 7.5 6.2 6.8 5.6 4.3 3.6 3.9 5.7 6.2 5.9 6.3 6.2 5.9 5.6 5.6 5.7 6.2 6.6 6.3 5.6 5.7 4.4 3.6 4.2 3.8 3.7 4.5 4.6 4.8 5.4 5.8 5.6 5.5 5.4
Wind_Speed
0 1 1 2 3 6 5 5 1 6 3 3 4 3 6 3 1 1 6 10 19 18 20 20 18 18 18 17 17 17 17 18 18 17 17 17 16 15 14 13 10 10 9 7 6 7 8 11 11
1 1 2 0 4 8 6 2 9 8 6 3 5 4 5 4 4 8 12 15 20 20 22 20 17 17 17 17 17 16 17 16 16 16 16 15 14 13 12 11 10 9 9 8 6 6 8 10 12
2 3 2 3 2 7 5 2 4 5 6 3 3 5 3 4 5 13 8 19 19 17 20 20 18 17 17 17 16 16 17 17 16 15 15 14 13 12 11 10 9 10 9 8 7 7 8 9 12
3 1 2 4 5 3 3 3 4 3 4 5 3 6 4 6 9 6 17 19 18 16 19 21 19 18 17 16 16 16 16 16 15 15 14 13 13 14 11 10 10 8 8 8 8 8 9 9 11
2 1 4 3 3 1 3 5 2 4 3 4 2 3 3 3 5 15 17 17 18 16 19 21 20 20 19 17 16 16 15 15 14 13 13 12 11 11 11 9 9 9 9 7 7 8 9 10 11
2 1 3 3 4 4 3 2 1 3 3 3 4 4 2 3 9 14 16 17 16 16 19 19 18 18 18 18 16 15 14 14 13 12 12 11 9 8 9 7 7 7 8 9 9 9 9 10 13
3 2 3 2 4 4 2 2 3 5 4 3 6 3 3 6 7 10 12 13 14 16 16 18 17 16 16 16 16 15 15 14 13 12 11 11 9 8 6 6 5 4 5 6 9 10 11 11 13
2 2 4 2 3 5 2 2 5 6 4 6 4 4 4 8 13 10 10 11 12 13 13 14 16 16 15 14 15 14 13 12 12 11 10 10 10 9 8 6 5 4 4 4 5 8 13 12 12
2 3 3 3 1 6 2 1 3 4 7 4 5 4 6 16 15 12 12 11 10 9 10 12 13 13 13 13 14 14 13 13 12 11 11 11 10 10 8 6 6 6 5 5 5 6 8 11 13
2 2 5 1 2 6 6 2 7 6 5 4 5 5 14 17 16 16 15 13 12 12 11 10 11 12 12 12 13 14 14 14 14 13 12 11 8 8 8 7 7 6 6 5 4 4 7 9 9
2 2 2 3 11 8 8 5 5 7 7 8 10 14 16 16 15 11 10 10 12 12 10 12 11 12 13 11 11 10 12 11 12 12 11 9 8 8 10 7 8 7 6 6 5 4 6 7 7
2 1 3 4 4 5 4 1 4 11 9 3 10 19 19 18 14 14 13 11 11 12 13 13 11 9 10 10 9 10 9 11 11 14 14 12 6 9 9 8 7 6 6 6 5 5 6 6 7
2 2 4 7 9 8 3 7 6 10 8 4 12 17 19 16 15 13 11 10 11 12 12 11 10 9 10 7 8 7 7 9 9 11 12 12 6 11 11 9 8 7 6 7 7 5 6 6 8
3 6 8 6 3 2 4 2 4 1 3 9 14 16 15 15 15 12 10 9 10 10 10 11 11 9 8 7 7 6 7 8 7 8 10 15 18 17 11 8 8 8 8 8 8 6 6 5 7
4 5 3 8 5 2 2 3 5 4 7 10 12 13 13 12 11 11 10 10 10 9 9 11 10 9 9 8 7 5 6 6 8 8 7 9 11 11 10 7 6 9 9 9 8 7 7 6 7
3 1 4 3 7 2 3 8 2 6 9 11 12 12 11 10 10 6 6 9 10 9 10 10 8 10 9 8 7 6 7 7 8 8 8 9 9 9 8 6 6 8 7 7 6 5 6 6 6
3 5 2 3 4 4 4 10 2 8 10 10 11 11 11 9 7 6 4 8 10 10 10 12 10 10 10 8 6 6 6 7 6 8 9 9 10 11 10 8 10 11 9 7 6 6 7 6 6
3 2 1 3 3 8 8 10 3 8 9 10 10 9 8 9 6 3 4 4 4 4 4 6 9 8 7 5 4 4 4 6 6 6 8 9 10 12 11 11 12 12 8 8 8 9 7 6 5
2 3 5 4 4 4 6 7 6 6 7 8 10 10 7 6 4 3 3 7 9 8 9 4 7 8 7 4 4 4 5 4 4 4 6 9 11 13 13 10 9 11 10 11 10 8 9 7 5
2 3 5 6 2 4 5 7 4 4 6 9 12 10 6 5 5 5 4 9 9 10 7 11 9 9 6 4 2 1 1 1 1 3 5 7 9 10 10 8 9 10 9 12 11 10 7 7 6
5 6 2 4 5 1 4 4 4 3 7 8 10 6 8 7 8 8 5 6 8 10 8 9 6 8 7 6 3 2 1 1 2 2 3 4 7 8 11 11 7 7 6 8 10 10 12 8 6
3 6 6 6 4 2 2 3 4 4 10 7 10 12 13 12 9 10 8 6 7 9 8 8 5 7 8 7 5 3 1 2 2 4 5 6 8 9 10 10 10 9 6 7 6 7 9 9 9
2 2 3 2 2 2 4 4 2 4 4 3 9 14 15 13 12 11 10 9 5 8 9 6 10 8 9 6 4 3 3 2 3 4 7 6 4 7 10 11 10 9 7 7 7 4 9 8 9
2 1 3 2 0 4 1 3 4 4 1 6 2 10 14 13 11 8 8 8 6 1 3 4 6 9 9 5 5 5 5 5 5 6 5 5 4 4 5 8 9 9 8 8 9 11 13 10 9
4 2 2 3 4 5 4 2 5 5 4 9 9 7 10 11 11 11 8 8 8 4 2 1 6 6 8 4 3 4 5 4 4 5 4 8 6 4 4 5 6 7 8 8 9 10 11 9 9
9 7 4 3 3 1 3 4 2 4 6 10 12 6 8 9 10 8 10 8 8 7 3 1 5 7 7 4 3 4 4 3 3 5 5 5 5 6 6 4 3 4 5 6 6 6 6 7 7
5 5 2 5 1 3 1 3 9 5 9 7 7 6 8 6 8 9 10 9 7 6 5 4 6 8 8 6 5 4 3 4 5 5 5 6 7 6 6 4 2 3 5 5 6 6 7 6 7
4 9 3 1 4 5 2 4 5 5 11 10 8 8 6 10 9 8 9 8 7 5 5 7 10 9 8 6 4 4 3 4 4 5 6 7 6 7 7 6 4 1 3 5 6 5 4 5 4
4 3 4 2 2 4 3 3 4 9 10 10 9 10 7 9 9 9 10 10 11 9 8 9 9 9 8 6 4 4 4 3 3 4 6 7 8 7 8 8 6 3 3 1 2 2 3 4 4
1 2 5 4 5 1 3 5 4 7 8 8 10 9 6 7 9 8 10 10 12 12 11 8 7 8 6 6 5 4 3 1 3 5 6 7 8 8 9 9 8 8 7 6 4 3 3 2 1
Wind_Direction
287 176 253 241 90 76 65 55 10 67 74 52 91 73 88 57 7 19 136 162 151 150 156 157 149 144 140 134 130 126 123 124 125 126 129 135 139 142 146 146 149 143 139 135 126 124 130 136 145
21 163 238 218 65 62 65 35 78 86 101 104 92 98 82 76 63 129 143 159 154 152 158 159 152 146 143 138 132 130 129 130 129 130 133 139 140 146 149 151 157 159 149 149 139 140 145 153 158
236 246 339 57 76 56 72 116 129 96 26 51 107 51 36 37 101 148 135 155 151 155 157 155 153 148 147 141 136 137 136 135 139 141 144 148 147 153 159 163 167 174 166 160 150 147 155 159 173
330 213 82 64 53 71 83 162 158 91 82 50 55 75 95 23 152 167 150 155 152 157 159 152 151 151 148 146 146 145 143 141 146 145 148 150 153 154 153 156 160 168 168 165 158 156 159 163 175
3 0 56 61 359 263 213 212 157 72 75 50 35 91 61 45 108 142 154 160 157 158 158 157 156 158 156 156 152 151 150 151 153 155 158 158 158 153 154 160 162 168 177 172 173 166 171 165 169
63 329 57 61 12 325 303 274 272 77 79 99 111 117 107 119 140 153 160 165 163 159 159 162 163 160 160 160 159 157 158 160 161 165 165 169 171 169 159 170 169 181 190 185 186 178 171 169 171
79 73 126 110 11 354 16 138 111 115 130 106 137 113 105 168 150 159 159 161 162 160 164 167 168 168 169 169 167 166 170 171 174 175 175 177 180 179 184 187 187 201 207 203 196 181 180 174 176
87 97 114 27 17 11 31 127 124 155 129 132 158 154 165 158 147 150 152 154 161 168 171 169 171 175 180 182 178 177 174 180 186 185 188 183 187 192 199 194 194 212 227 231 218 198 183 177 173
167 87 103 163 248 332 184 273 116 131 141 172 162 137 118 137 143 153 153 156 165 176 177 176 172 181 183 189 187 182 186 191 194 200 200 193 205 199 200 196 192 200 225 245 234 201 192 180 178
27 111 180 214 251 300 308 248 148 177 169 184 151 99 145 149 160 168 170 171 181 176 183 181 182 184 185 193 193 187 194 199 202 207 205 207 211 218 218 217 214 230 226 241 248 227 195 193 195
144 128 167 267 247 271 297 270 192 185 213 201 193 160 162 165 177 168 175 187 188 180 182 195 188 191 195 190 187 188 195 200 207 213 213 212 214 227 231 214 212 225 231 235 222 207 216 201 196
265 189 186 269 282 273 270 245 225 222 242 206 190 166 164 180 171 179 186 189 189 188 190 195 195 192 206 199 191 199 193 206 205 214 210 211 217 236 240 236 227 220 233 256 243 217 213 205 201
207 329 266 276 284 261 250 244 247 245 241 183 155 164 172 179 179 195 196 187 185 192 193 194 197 199 211 206 209 200 201 213 222 223 217 162 235 253 220 225 232 236 229 236 237 227 218 210 208
338 287 301 327 340 265 292 322 204 340 153 140 162 175 173 179 184 190 193 192 201 198 197 189 195 212 209 223 219 217 216 221 224 236 224 208 205 218 221 222 225 231 230 229 237 225 231 230 217
308 320 46 23 3 21 290 238 232 342 146 161 173 173 170 176 175 187 198 198 210 203 201 204 194 190 210 217 221 225 242 229 238 239 233 233 225 228 227 233 232 230 223 230 226 241 227 233 219
8 14 306 50 351 38 304 312 312 150 163 184 178 172 165 167 160 162 175 205 211 209 191 205 194 194 202 214 217 212 223 226 242 247 248 243 242 231 224 230 238 240 238 246 255 243 235 236 232
27 267 326 347 355 327 358 305 20 181 185 198 192 179 168 139 132 149 172 207 196 207 208 198 192 197 199 209 219 228 242 246 241 249 250 249 248 242 242 236 246 242 243 247 249 249 245 236 230
242 296 320 270 339 311 302 287 255 209 207 210 206 189 178 154 123 146 188 177 142 152 196 218 184 185 183 188 202 225 238 247 242 246 252 262 255 245 236 242 239 240 247 245 236 241 236 248 248
99 303 297 273 302 278 314 303 318 217 219 214 216 207 185 136 143 151 200 145 136 134 135 145 169 172 168 158 184 215 221 213 238 255 263 259 254 246 237 239 234 231 235 237 230 232 238 235 232
208 258 273 303 11 273 315 304 283 249 237 233 231 215 189 159 166 145 152 169 181 177 179 132 137 142 153 151 141 0 36 50 304 255 264 259 259 251 234 229 234 233 231 231 230 218 227 237 226
221 238 233 301 327 37 316 283 277 239 254 235 235 219 198 187 188 184 174 188 207 197 185 139 146 125 114 113 120 121 135 141 276 301 288 265 260 256 241 222 221 218 229 229 227 211 214 227 210
229 215 264 292 303 290 299 290 265 265 281 243 235 215 202 188 190 182 190 202 201 188 179 106 118 80 77 101 130 146 156 347 328 301 290 281 270 266 251 243 227 228 214 212 225 240 222 223 221
124 196 321 344 198 260 190 252 255 285 324 317 215 220 214 192 188 189 196 210 201 155 144 133 87 67 75 87 103 94 35 13 340 329 321 323 300 280 268 250 239 229 211 209 190 236 246 220 233
98 159 68 65 217 252 187 273 246 255 259 299 347 231 218 199 182 193 209 217 224 159 158 111 75 63 80 76 66 49 40 16 2 351 335 313 314 311 280 263 242 232 222 208 203 208 228 219 223
176 188 249 205 202 250 75 235 274 268 265 267 293 286 227 194 178 193 200 212 218 202 270 110 97 88 93 96 84 58 48 15 359 358 343 338 334 332 323 299 247 224 220 219 214 217 219 216 221
194 202 217 241 213 33 129 237 250 286 288 281 277 262 213 188 179 170 195 202 214 211 228 286 112 123 134 139 103 78 50 27 6 358 349 355 336 323 315 314 257 232 229 225 216 223 223 216 215
150 195 71 117 72 252 252 264 266 258 264 272 260 218 200 181 151 165 175 183 188 187 204 215 141 148 154 146 115 105 69 29 6 360 359 7 347 341 341 339 293 214 208 220 214 220 219 228 224
241 141 165 137 189 227 197 270 263 255 248 233 225 227 151 118 127 142 154 161 152 158 161 168 159 153 154 136 138 133 84 39 3 350 11 19 3 358 16 20 347 281 226 207 205 217 211 205 221
157 181 68 116 292 240 233 232 214 245 250 234 205 215 137 134 119 136 142 153 143 147 150 148 146 154 157 137 155 127 78 21 358 10 26 22 20 13 29 34 23 10 316 286 182 217 201 211 217
191 229 186 238 191 211 294 253 177 248 266 223 208 173 117 128 147 141 149 145 141 143 146 149 155 159 154 151 149 125 111 27 12 27 37 35 37 34 40 47 48 46 49 38 37 44 33 3 331